Location: *
(34.8620°S, 39.3380°E)
Time: 08:12:59
(UTC+00:00)

MOS 1 Rocket - Pass Details

Date: 27 July 2021
Orbit: 613 x 831 km, 97.4° (Epoch: 22 September)

Event Time Altitude Azimuth Distance (km) Brightness Sun altitude
Rises 02:26:44 0° 172° (S) 2,944 6.6 -23.4°
Reaches altitude 10° 02:28:54 10° 173° (S) 2,046 5.7 -22.9°
Maximum altitude 02:33:20 72° 257° (WSW) 696 3.0 -22.0°
Drops below altitude 10° 02:37:56 10° 341° (NNW) 2,123 5.7 -21.1°
Sets 02:40:14 0° 342° (NNW) 3,065 6.5 -20.6°
